Location: Andiroba
(19.8650°S, 43.9258°W)
Time: 01:09:25
(UTC+00:00)

Cosmos 1076 Rocket - Pass Details

Date: 15 June 2024
Orbit: 586 x 607 km, 82.5° (Epoch: 24 July)

Event Time Altitude Azimuth Distance (km) Brightness Sun altitude
Exits shadow 07:31:22 38° 10° (N) 906 4.5 -26.6°
Drops below altitude 10° 07:33:59 10° 6° (N) 1,902 6.3 -26.0°
Sets 07:36:10 0° 5° (N) 2,794 7.2 -25.5°
